[[{"header":{"parameterUnit":"m.s-1","parameterCategory":1,"la1":30.2991,"la2":30.254,"lo1":-89.0895,"lo2":-89.0444,"dy":0.0017,"dx":0.0017,"nx":28,"ny":28,"refTime":"2024-03-31T09:00:00:Z","depth":0,"parameterNumber":2,"parameterNumberName":"U-component_of_WINDS"},"data":[0,0,0,0,0,0,0,0,0,0,0,0,0,0,0,0,0,0,0,0,0,0,0,0,0,0,0,0,0,0,0,0,0,0,0,0,0,0,0,0,0,0,0,0,0,0,0,0,0,0,0,0,0,0,0,0,0,0,-2.8673,-2.8674,0,-2.8779,-2.878,-2.8781,-2.8804,-2.8803,-2.8803,-2.8802,-2.8909,-2.8912,-2.8916,0,0,0,0,0,0,0,0,0,0,0,0,0,-2.8491,-2.8494,-2.8673,-2.8674,-2.8676,-2.8778,-2.878,-2.8781,-2.8804,-2.8803,-2.8802,-2.8802,-2.8908,-2.8912,-2.8916,0,0,0,0,0,0,0,0,0,0,0,0,0,-2.8581,-2.8495,-2.8673,-2.8699,-2.8703,-2.8778,-2.878,-2.8782,-2.8805,-2.8803,-2.8802,-2.8801,-2.8906,-2.8911,-2.8917,-2.8972,0,0,-2.8933,-2.8935,0,0,0,0,0,0,0,0,-2.8575,-2.8587,-2.8694,-2.8698,-2.8702,-2.8777,-2.8755,-2.8846,-2.8805,-2.8766,-2.8802,-2.8801,-2.8866,-2.8874,-2.8897,-2.8977,-2.8982,-2.8933,-2.8937,-2.8939,-2.894,0,0,0,0,0,0,0,-2.8569,-2.8583,-2.8715,-2.8696,-2.87,-2.8706,-2.8718,-2.8772,-2.8821,-2.8769,-2.8771,-2.8783,-2.8868,-2.8891,-2.8899,-2.8983,-2.8933,-2.8938,-2.8941,-2.8943,-2.9115,-2.9117,0,0,0,0,0,0,-2.8558,-2.8577,-2.8711,-2.8718,-2.8635,-2.871,-2.8723,-2.8754,-2.882,-2.8829,-2.8784,-2.8784,-2.8883,-2.8893,-2.8903,-2.8972,-2.8939,-2.8944,-2.8947,-2.9114,-2.9116,-2.9117,0,0,0,0,0,0,-2.8554,-2.857,-2.8707,-2.8648,-2.8666,-2.8715,-2.8749,-2.8757,-2.8781,-2.8832,-2.884,-2.88,-2.8882,-2.8896,-2.8955,-2.8976,-2.8946,-2.8951,-2.9112,-2.9114,-2.9116,-2.9111,0,0,0,0,0,0,-2.8549,-2.8569,-2.859,-2.8649,-2.8669,-2.8757,-2.8751,-2.876,-2.879,-2.8791,-2.8849,-2.8857,-2.8883,-2.8947,-2.896,-2.8983,-2.8955,-2.9111,-2.9113,-2.9116,-2.9109,-2.9113,-2.9115,0,0,0,0,0,-2.8543,-2.8584,-2.8591,-2.8607,-2.8697,-2.8758,-2.877,-2.8799,-2.8791,-2.8813,-2.8847,-2.8855,-2.8972,-2.8953,-2.8968,-2.8993,-2.9109,-2.9113,-2.9116,-2.9108,-2.9112,-2.9115,0,0,0,0,0,0,-2.8526,-2.8592,-2.8601,-2.8662,-2.8705,-2.8762,-2.8791,-2.8802,-2.8847,-2.8846,-2.888,-2.8893,-2.895,-2.8978,-2.8955,-2.905,-2.9041,-2.9047,-2.903,-2.9034,-2.9037,-2.9028,-2.896,0,0,0,0,0,-2.853,-2.8574,-2.863,-2.8679,-2.87,-2.8742,-2.8769,-2.8788,-2.8833,-2.8851,-2.8888,-2.8931,-2.8978,-2.9008,-2.9053,-2.9114,-2.9127,-2.9139,-2.9142,-2.9144,-2.9148,-2.9183,-2.9188,-2.9127,-2.9127,-2.9127,0,0,-2.8538,-2.8579,-2.8605,-2.8677,-2.8711,-2.8756,-2.8756,-2.8804,-2.8837,-2.8858,-2.8916,-2.8945,-2.8996,-2.9056,-2.9085,-2.9081,-2.9169,-2.9148,-2.9149,-2.9153,-2.9186,-2.9192,-2.9197,-2.9129,-2.9129,-2.9129,0,0,-2.8574,-2.8611,-2.8656,-2.8691,-2.8744,-2.8772,-2.8783,-2.8839,-2.8859,-2.8919,-2.8935,-2.8976,-2.9055,-2.909,-2.9119,-2.9171,-2.918,-2.9185,-2.9199,-2.9232,-2.9237,-2.9241,-2.9259,-2.9265,-2.9189,-2.9189,-2.9189,0,-2.8577,-2.8645,-2.8677,-2.8724,-2.8755,-2.8777,-2.8822,-2.8855,-2.892,-2.8941,-2.8936,-2.9037,-2.9073,-2.9141,-2.9154,-2.9177,-2.919,-2.9177,-2.9234,-2.9238,-2.9243,-2.926,-2.9267,-2.9189,-2.9189,-2.9189,-2.9189,0,-2.8646,-2.8693,-2.8723,-2.8786,-2.8821,-2.8866,-2.8905,-2.8936,-2.8953,-2.8981,-2.9041,-2.9085,-2.914,-2.9158,-2.9174,-2.9229,-2.9225,-2.9227,-2.9217,-2.9248,-2.9265,-2.9272,-2.919,-2.919,-2.9189,-2.9189,0,0,-2.8673,-2.8754,-2.8764,-2.8793,-2.8854,-2.8891,-2.8939,-2.8993,-2.9019,-2.9064,-2.9104,-2.9171,-2.9174,-2.9206,-2.9226,-2.9255,-2.9293,-2.9254,-2.9255,-2.9258,-2.9356,-2.9353,-2.936,-2.93,-2.9302,-2.9303,-2.9351,0,-2.8717,-2.8801,-2.8832,-2.8902,-2.8946,-2.8968,-2.9009,-2.9051,-2.9079,-2.9121,-2.9152,-2.9199,-2.9199,-2.9218,-2.9248,-2.9282,-2.9313,-2.9279,-2.9337,-2.9339,-2.9322,-2.9369,-2.9366,-2.9409,-2.9358,-2.9359,-2.936,0,-2.8778,-2.8824,-2.8898,-2.8954,-2.8974,-2.901,-2.9062,-2.9102,-2.915,-2.9169,-2.9205,-2.9224,-2.9275,-2.9264,-2.9333,-2.931,-2.9336,-2.9356,-2.9358,-2.9363,-2.935,-2.9374,-2.9423,-2.9429,-2.937,-2.937,-2.9369,0,-2.8789,-2.887,-2.8924,-2.8949,-2.9016,-2.9041,-2.907,-2.9117,-2.9148,-2.9194,-2.9214,-2.9265,-2.9293,-2.9332,-2.9365,-2.9354,-2.9431,-2.9423,-2.9447,-2.9446,-2.9461,-2.9459,-2.9514,-2.948,-2.948,-2.948,-2.948,0,-2.8833,-2.8877,-2.893,-2.8964,-2.9014,-2.9049,-2.9098,-2.9129,-2.9171,-2.921,-2.9234,-2.927,-2.9312,-2.9354,-2.938,-2.9433,-2.9446,-2.9462,-2.9468,-2.9459,-2.9456,-2.9475,-2.9472,-2.9482,-2.9481,-2.9481,-2.9481,0,-2.8853,-2.8891,-2.8952,-2.901,-2.9026,-2.9061,-2.9111,-2.9145,-2.9175,-2.9225,-2.9238,-2.9285,-2.9336,-2.9373,-2.9439,-2.9456,-2.9513,-2.952,-2.9497,-2.9499,-2.9521,-2.9518,-2.9588,-2.9599,-2.9559,-2.9559,-2.956,0,-2.8878,-2.8913,-2.8975,-2.9004,-2.9033,-2.9078,-2.911,-2.9147,-2.9179,-2.9237,-2.9263,-2.9316,-2.936,-2.9441,-2.948,-2.9531,-2.9538,-2.9559,-2.9546,-2.9536,-2.9537,-2.9534,-2.9537,-2.9561,-2.9561,-2.9561,-2.9561,0,-2.8918,-2.8935,-2.898,-2.9032,-2.9069,-2.9112,-2.9154,-2.9176,-2.922,-2.9255,-2.9308,-2.9342,-2.941,-2.9462,-2.9517,-2.9546,-2.9561,-2.9566,-2.9574,-2.9564,-2.9549,-2.9556,-2.95,-2.9563,-2.9563,-2.9563,-2.9563,-2.9563,-2.8941,-2.8972,-2.9021,-2.9071,-2.9107,-2.9147,-2.9181,-2.9216,-2.926,-2.9318,-2.9337,-2.9391,-2.944,-2.9515,-2.9546,-2.9589,-2.9588,-2.96,-2.9602,-2.9604,-2.9603,-2.9543,-2.9599,-2.9599,-2.9599,-2.9599,-2.9599,0,-2.8981,-2.9014,-2.9059,-2.9118,-2.9157,-2.9169,-2.9217,-2.9248,-2.9296,-2.934,-2.9383,-2.9444,-2.9495,-2.9539,-2.9592,-2.9618,-2.9626,-2.963,-2.9628,-2.9634,-2.9602,-2.9589,-2.9623,-2.9623,-2.9623,-2.9623,-2.9623,-2.9623,-2.9006,-2.906,-2.9083,-2.9155,-2.9188,-2.9242,-2.9268,-2.9305,-2.934,-2.9407,-2.9449,-2.9478,-2.9522,-2.9579,-2.9626,-2.9638,-2.9656,-2.9658,-2.9671,-2.964,-2.9637,-2.9634,-2.9622,-2.9662,-2.9662,-2.97,-2.9701,-2.9701]},{"header":{"parameterUnit":"m.s-1","parameterCategory":1,"la1":30.2991,"la2":30.254,"lo1":-89.0895,"lo2":-89.0444,"dy":0.0017,"dx":0.0017,"nx":28,"ny":28,"refTime":"2024-03-31T09:00:00:Z","depth":0,"parameterNumber":3,"parameterNumberName":"V-component_of_WINDS"},"data":[0,0,0,0,0,0,0,0,0,0,0,0,0,0,0,0,0,0,0,0,0,0,0,0,0,0,0,0,0,0,0,0,0,0,0,0,0,0,0,0,0,0,0,0,0,0,0,0,0,0,0,0,0,0,0,0,0,0,4.606,4.6061,0,4.6146,4.6147,4.6148,4.6159,4.6159,4.6158,4.6157,4.624,4.6243,4.6246,0,0,0,0,0,0,0,0,0,0,0,0,0,4.5901,4.5904,4.606,4.6061,4.6062,4.6146,4.6147,4.6149,4.616,4.6159,4.6158,4.6157,4.6239,4.6243,4.6247,0,0,0,0,0,0,0,0,0,0,0,0,0,4.5977,4.5905,4.606,4.6078,4.608,4.6146,4.6147,4.6149,4.616,4.6158,4.6157,4.6156,4.6238,4.6243,4.6247,4.6299,0,0,4.6261,4.6263,0,0,0,0,0,0,0,0,4.5972,4.5982,4.6074,4.6077,4.608,4.6141,4.6122,4.6199,4.616,4.6129,4.6157,4.6156,4.6208,4.6215,4.6234,4.6303,4.6307,4.6261,4.6264,4.6266,4.6267,0,0,0,0,0,0,0,4.5967,4.5979,4.6094,4.6075,4.6079,4.608,4.609,4.6137,4.6174,4.6132,4.6133,4.6143,4.6209,4.6229,4.6236,4.6308,4.6261,4.6265,4.6268,4.6269,4.6426,4.6427,0,0,0,0,0,0,4.5959,4.5974,4.6091,4.6097,4.6022,4.6084,4.6095,4.6122,4.6174,4.6181,4.6144,4.6144,4.6222,4.623,4.6239,4.6305,4.6266,4.627,4.6272,4.6425,4.6426,4.6428,0,0,0,0,0,0,4.5956,4.5969,4.6088,4.6036,4.6051,4.6088,4.6119,4.6125,4.6145,4.6183,4.619,4.6158,4.6222,4.6232,4.6285,4.6308,4.6272,4.6276,4.6423,4.6425,4.6427,4.6436,0,0,0,0,0,0,4.5951,4.5968,4.5989,4.6036,4.6054,4.6134,4.6121,4.6127,4.6153,4.6153,4.6198,4.6204,4.6221,4.6278,4.6289,4.6313,4.6279,4.6421,4.6424,4.6426,4.6434,4.6438,4.6442,0,0,0,0,0,4.5945,4.5987,4.599,4.6004,4.6081,4.6135,4.6145,4.6165,4.6155,4.6176,4.6201,4.6203,4.6303,4.6283,4.6296,4.6322,4.642,4.6423,4.6426,4.6432,4.6437,4.6442,0,0,0,0,0,0,4.5939,4.5993,4.5998,4.6056,4.6091,4.6137,4.6164,4.617,4.6208,4.6206,4.6228,4.6238,4.629,4.631,4.6288,4.6375,4.636,4.6366,4.636,4.6366,4.637,4.6364,4.6283,0,0,0,0,0,4.5944,4.5985,4.603,4.6076,4.6094,4.6126,4.615,4.6163,4.62,4.6214,4.6243,4.6277,4.6317,4.6342,4.638,4.6437,4.6447,4.646,4.6464,4.6468,4.6473,4.6506,4.6512,4.6439,4.6439,4.6439,0,0,4.5956,4.5991,4.6014,4.6076,4.6105,4.6146,4.6138,4.6181,4.6212,4.622,4.6273,4.6295,4.6334,4.639,4.6415,4.6409,4.6495,4.6472,4.6474,4.6478,4.651,4.6517,4.6523,4.6441,4.6441,4.644,0,0,4.5998,4.6028,4.6072,4.6101,4.6146,4.6167,4.6178,4.6223,4.6239,4.6292,4.63,4.6335,4.6403,4.6431,4.6455,4.6509,4.6513,4.6521,4.6542,4.6574,4.658,4.6585,4.6606,4.6613,4.6526,4.6526,4.6526,0,4.6006,4.607,4.6092,4.6137,4.6164,4.6175,4.6219,4.6246,4.63,4.6318,4.631,4.6397,4.6424,4.6487,4.65,4.6518,4.6531,4.6516,4.6578,4.6583,4.6588,4.6609,4.6616,4.6527,4.6527,4.6526,4.6526,0,4.6078,4.6122,4.6152,4.6207,4.6237,4.628,4.6309,4.6336,4.6347,4.6369,4.6423,4.6456,4.6503,4.6518,4.6528,4.6583,4.6578,4.6573,4.6559,4.6596,4.6615,4.6623,4.6528,4.6527,4.6527,4.6527,0,0,4.6119,4.6187,4.6198,4.6224,4.6274,4.6308,4.6352,4.6399,4.6423,4.6459,4.6497,4.6555,4.6552,4.6578,4.6591,4.6619,4.6662,4.6611,4.6613,4.6621,4.6726,4.673,4.6739,4.6664,4.6666,4.6667,4.6723,0,4.6168,4.6249,4.6272,4.634,4.6381,4.6393,4.6431,4.6466,4.6488,4.6525,4.6548,4.6589,4.6581,4.6598,4.6626,4.6651,4.6684,4.6647,4.6699,4.6701,4.6691,4.6749,4.6753,4.6804,4.6731,4.6732,4.6733,0,4.6236,4.6278,4.6351,4.6398,4.6416,4.645,4.6497,4.6532,4.6571,4.6585,4.6616,4.6627,4.6672,4.6655,4.6718,4.6693,4.6715,4.6731,4.6734,4.674,4.672,4.6758,4.6821,4.6829,4.6745,4.6744,4.6743,0,4.6261,4.6334,4.6388,4.6409,4.6465,4.6489,4.6513,4.6552,4.658,4.6619,4.6637,4.668,4.6704,4.6737,4.6759,4.6744,4.6821,4.6805,4.6834,4.6833,4.685,4.6849,4.6919,4.6862,4.6862,4.6862,4.6862,0,4.6314,4.6359,4.64,4.6433,4.6483,4.6508,4.6556,4.6581,4.6615,4.6653,4.6664,4.6699,4.6726,4.6764,4.6781,4.6832,4.6841,4.6854,4.6858,4.6854,4.6852,4.687,4.6867,4.6864,4.6864,4.6863,4.6863,0,4.635,4.6379,4.6439,4.6488,4.6502,4.6537,4.6578,4.661,4.6632,4.668,4.6692,4.6727,4.6772,4.6798,4.6854,4.6865,4.6923,4.6924,4.691,4.6912,4.694,4.6938,4.7025,4.7038,4.6971,4.6972,4.6972,0,4.6383,4.6418,4.6472,4.6499,4.6524,4.6567,4.6596,4.6621,4.6651,4.67,4.6726,4.6773,4.6812,4.6884,4.6913,4.6956,4.696,4.6988,4.6966,4.6962,4.6962,4.6961,4.6965,4.6991,4.6992,4.6993,4.6993,0,4.6439,4.6453,4.6495,4.6543,4.6578,4.6616,4.6653,4.6674,4.6706,4.6738,4.6786,4.6817,4.6876,4.6922,4.6968,4.6991,4.6998,4.6999,4.7009,4.7005,4.6996,4.7003,4.6922,4.6997,4.6997,4.6997,4.6996,4.6996,4.6476,4.6509,4.6552,4.6599,4.6631,4.6666,4.67,4.6727,4.6768,4.682,4.6832,4.6883,4.6922,4.6985,4.701,4.7049,4.7044,4.7057,4.706,4.7064,4.7066,4.6989,4.7057,4.7057,4.7057,4.7057,4.7057,0,4.6535,4.6564,4.6607,4.6661,4.6698,4.6702,4.6744,4.6774,4.682,4.6857,4.6896,4.6951,4.6996,4.703,4.7076,4.7101,4.7105,4.7113,4.7112,4.7117,4.7067,4.7055,4.7109,4.7109,4.7109,4.7109,4.7109,4.7109,4.6569,4.6625,4.6644,4.6715,4.6744,4.6795,4.6819,4.6852,4.6882,4.6944,4.6983,4.7005,4.7041,4.709,4.7132,4.714,4.7157,4.7165,4.7174,4.7126,4.7121,4.7115,4.7104,4.7168,4.7168,4.7221,4.7221,4.7222]}]]